This is the latest recevied weather packets stored in our database for station/object W0AVQ. If no packets are shown the sender has not sent any weather packets the latest 10 day(s).
| Time | Temp. | Humidity | Pressure | Rain* | Wind** | Luminosity | Snow |
|---|---|---|---|---|---|---|---|
| 1777772338 | 10.56° C | 68% | 1021 hPa | 0 mm | - | 0 W/m² | - |
| 1777772034 | 11.11° C | 67% | 1020.9 hPa | 0 mm | - | 0 W/m² | - |
| 1777771732 | 11.67° C | 66% | 1020.9 hPa | 0 mm | - | 0 W/m² | - |
| 1777771429 | 11.67° C | 66% | 1020.9 hPa | 0 mm | - | 0 W/m² | - |
| 1777771126 | 11.67° C | 65% | 1020.6 hPa | 0 mm | - | 0 W/m² | - |
| 1777770823 | 11.67° C | 64% | 1020.7 hPa | 0 mm | - | 0 W/m² | - |
| 1777770519 | 11.67° C | 64% | 1020.9 hPa | 0 mm | - | 0 W/m² | - |
| 1777770217 | 12.22° C | 64% | 1020.8 hPa | 0 mm | - | 0 W/m² | - |
| 1777769913 | 12.22° C | 63% | 1020.7 hPa | 0 mm | - | 0 W/m² | - |
| 1777769611 | 12.78° C | 62% | 1020.5 hPa | 0 mm | - | 0 W/m² | - |
| 1777769307 | 12.78° C | 62% | 1020.5 hPa | 0 mm | - | 1 W/m² | - |
| 1777769005 | 12.78° C | 61% | 1020.7 hPa | 0 mm | - | 3 W/m² | - |
| 1777768702 | 13.33° C | 59% | 1020.8 hPa | 0 mm | - | 4 W/m² | - |
| 1777768399 | 13.33° C | 59% | 1020.6 hPa | 0 mm | - | 8 W/m² | - |
| 1777768096 | 13.89° C | 57% | 1020.7 hPa | 0 mm | - | 11 W/m² | - |
| 1777767793 | 13.89° C | 57% | 1020.5 hPa | 0 mm | - | 12 W/m² | - |
| 1777767489 | 13.89° C | 56% | 1020.6 hPa | 0 mm | - | 17 W/m² | - |
| 1777767185 | 14.44° C | 57% | 1020.7 hPa | 0 mm | - | 21 W/m² | - |
| 1777766883 | 14.44° C | 55% | 1020.4 hPa | 0 mm | - | 26 W/m² | - |
| 1777766580 | 14.44° C | 55% | 1020.8 hPa | 0 mm | - | 31 W/m² | - |
| 1777766277 | 14.44° C | 55% | 1020.5 hPa | 0 mm | - | 36 W/m² | - |
| 1777765975 | 15° C | 55% | 1020.5 hPa | 0 mm | - | 42 W/m² | - |
| 1777765671 | 14.44° C | 55% | 1020.5 hPa | 0 mm | - | 50 W/m² | - |
| 1777765368 | 15° C | 55% | 1020.3 hPa | 0 mm | - | 58 W/m² | - |
| 1777765064 | 15° C | 55% | 1020.3 hPa | 0 mm | - | 73 W/m² | - |
* Rain latest hour (hover to see other rain measurements)
** Current wind speed in m/s (hover to see current wind gust speed)